QPF
0.00 0.00 0.00 0.00 0.00 0.00 0.00 0.00 0.00 0.00 0.00 0.00 0.00 0.00 0.00 0.00 0.00 0.00 0.00 0.00 0.00 0.00 0.00 0.00 0.00 0.00 0.00 0.00 0.00 0.00 0.00 0.00 0.00 0.00 0.00 0.00 0.00 0.00 0.00 0.00 0.00 0.00 0.00 0.00
0.00 0.00 0.00 0.00 0.00 0.00 0.00 0.00 0.00 0.00 0.00 0.00 0.00 0.00 0.00 0.00 0.00 0.00 0.00 0.00 0.00 0.00 0.00 0.00 0.00 0.00 0.00 0.00 0.00 0.00 0.00 0.00 0.00 0.00 0.00 0.00 0.00 0.00 0.00 0.00 0.00 0.00 0.00 0.00
0.00 0.00 0.00 0.00 0.00 0.00 0.00 0.00 0.00 0.00 0.00 0.00 0.00 0.00 0.00 0.00 0.00 0.00 0.00 0.00 0.00 0.00 0.00 0.00 0.00 0.00 0.00 0.00 0.00 0.00 0.00 0.00 0.00 0.00 0.00 0.00 0.00 0.00 0.00 0.00 0.00 0.00 0.00 0.00
0.00 0.00 0.00 0.00 0.00 0.00 0.00 0.00 0.00 0.00 0.00 0.00 0.00 0.00 0.00 0.00 0.00 0.00 0.00 0.00 0.00 0.00 0.00 0.00 0.00 0.00 0.00 0.00 0.00 0.00 0.00 0.00 0.00 0.00 0.00 0.00 0.00 0.00 0.00 0.00 0.00 0.00 0.00 0.00
0.00 0.00 0.00 0.00 0.00 0.00 0.00 0.00 0.00 0.00 0.00 0.00 0.00 0.00 0.00 0.00 0.00 0.00 0.00 0.00 0.00 0.00 0.00 0.00 0.00 0.00 0.00 0.00 0.00 0.00 0.00 0.00 0.00 0.00 0.00 0.00 0.00 0.00 0.00 0.00 0.00 0.00 0.00 0.00
0.00 0.00 0.00 0.00 0.00 0.00 0.00 0.00 0.00 0.00 0.00 0.00 0.00 0.00 0.00 0.00 0.00 0.00 0.00 0.00 0.00 0.00 0.00 0.00 0.00 0.00 0.00 0.00 0.00 0.00 0.00 0.00 0.00 0.00 0.00 0.00 0.00 0.00 0.00 0.00 0.00 0.00 0.00 0.00
0.00 0.00 0.00 0.00 0.00 0.00 0.00 0.00 0.00 0.00 0.00 0.00 0.00 0.00 0.00 0.00 0.00 0.00 0.00 0.00 0.00 0.00 0.00 0.00 0.00 0.00 0.00 0.00 0.00 0.00 0.00 0.00 0.00 0.00 0.00 0.00 0.00 0.00 0.00 0.00 0.00 0.00 0.00 0.00
0.00 0.00 0.00 0.00 0.00 0.00 0.00 0.00 0.00 0.00 0.00 0.00 0.00 0.00 0.00 0.00 0.00 0.00 0.00 0.00 0.00 0.00 0.00 0.00 0.00 0.00 0.00 0.00 0.00 0.00 0.00 0.00 0.00 0.00 0.00 0.00 0.00 0.00 0.00 0.00 0.00 0.00 0.00 0.00
0.00 0.00 0.00 0.00 0.00 0.00 0.00 0.00 0.00 0.00 0.00 0.00 0.00 0.00 0.00 0.00 0.00 0.00 0.00 0.00 0.00 0.00 0.00 0.00 0.00 0.00 0.00 0.00 0.00 0.00 0.00 0.00 0.00 0.00 0.00 0.00 0.00 0.00 0.00 0.00 0.00 0.00 0.00 0.00
0.00 0.00 0.00 0.00 0.00 0.00 0.00 0.00 0.00 0.00 0.00 0.00 0.00 0.00 0.00 0.00 0.00 0.00 0.00 0.00 0.00 0.00 0.00 0.00 0.00 0.00 0.00 0.00 0.00 0.00 0.00 0.00 0.00 0.00 0.00 0.00 0.00 0.00 0.00 0.00 0.00 0.00 0.00 0.00
0.00 0.00 0.00 0.00 0.00 0.00 0.00 0.00 0.00 0.00 0.00 0.00 0.00 0.00 0.00 0.00 0.00 0.00 0.00 0.00 0.00 0.00 0.00 0.00 0.00 0.00 0.00 0.00 0.00 0.00 0.00 0.00 0.00 0.00 0.00 0.00 0.00 0.00 0.00 0.00 0.00 0.00 0.01 0.00
0.00 0.00 0.00 0.00 0.00 0.00 0.00 0.00 0.00 0.00 0.00 0.00 0.00 0.00 0.00 0.00 0.00 0.00 0.00 0.00 0.00 0.00 0.00 0.00 0.00 0.00 0.00 0.00 0.00 0.00 0.00 0.00 0.00 0.00 0.00 0.00 0.00 0.00 0.00 0.00 0.00 0.01 0.01 0.01
0.00 0.00 0.00 0.00 0.00 0.00 0.00 0.00 0.00 0.00 0.00 0.00 0.00 0.00 0.00 0.00 0.00 0.00 0.00 0.00 0.00 0.00 0.00 0.00 0.00 0.00 0.00 0.00 0.00 0.00 0.00 0.00 0.00 0.00 0.00 0.00 0.00 0.00 0.00 0.01 0.01 0.01 0.01 0.01
0.00 0.00 0.00 0.00 0.00 0.00 0.00 0.00 0.00 0.00 0.00 0.00 0.00 0.00 0.00 0.00 0.00 0.00 0.00 0.00 0.00 0.00 0.00 0.00 0.00 0.00 0.00 0.00 0.00 0.00 0.00 0.00 0.00 0.00 0.00 0.00 0.00 0.00 0.01 0.01 0.01 0.01 0.01 0.01
0.00 0.00 0.00 0.00 0.00 0.00 0.00 0.00 0.00 0.00 0.00 0.00 0.00 0.00 0.00 0.00 0.00 0.00 0.00 0.00 0.00 0.00 0.00 0.00 0.00 0.00 0.00 0.00 0.00 0.00 0.00 0.00 0.00 0.00 0.00 0.00 0.00 0.00 0.00 0.01 0.01 0.02 0.03 0.02
0.00 0.00 0.00 0.00 0.00 0.00 0.00 0.00 0.00 0.00 0.00 0.00 0.00 0.00 0.00 0.00 0.00 0.00 0.00 0.00 0.00 0.00 0.00 0.00 0.00 0.00 0.00 0.00 0.00 0.00 0.00 0.00 0.00 0.00 0.00 0.00 0.00 0.00 0.00 0.01 0.03 0.06 0.10 0.11
0.00 0.00 0.00 0.00 0.00 0.00 0.00 0.00 0.00 0.00 0.00 0.00 0.00 0.00 0.00 0.00 0.00 0.00 0.00 0.00 0.00 0.00 0.00 0.00 0.00 0.00 0.00 0.00 0.00 0.00 0.00 0.00 0.00 0.00 0.00 0.00 0.00 0.00 0.00 0.00 0.01 0.04 0.08 0.13
0.00 0.00 0.01 0.00 0.00 0.00 0.00 0.00 0.00 0.00 0.00 0.00 0.00 0.00 0.00 0.00 0.00 0.00 0.00 0.00 0.00 0.00 0.00 0.00 0.00 0.00 0.00 0.00 0.00 0.00 0.00 0.00 0.00 0.00 0.00 0.00 0.00 0.00 0.00 0.00 0.01 0.02 0.05 0.09
0.00 0.00 0.00 0.00 0.00 0.00 0.00 0.00 0.00 0.00 0.00 0.00 0.00 0.00 0.00 0.00 0.00 0.00 0.00 0.00 0.00 0.00 0.00 0.00 0.00 0.00 0.00 0.00 0.00 0.00 0.00 0.00 0.00 0.00 0.00 0.00 0.00 0.00 0.00 0.00 0.00 0.02 0.03 0.05
0.00 0.00 0.01 0.01 0.01 0.00 0.00 0.00 0.00 0.00 0.00 0.00 0.00 0.00 0.00 0.00 0.00 0.00 0.00 0.00 0.00 0.00 0.00 0.00 0.00 0.00 0.00 0.00 0.00 0.00 0.00 0.00 0.00 0.00 0.00 0.00 0.00 0.00 0.00 0.00 0.00 0.01 0.03 0.04
0.00 0.01 0.02 0.01 0.03 0.00 0.00 0.00 0.00 0.00 0.00 0.00 0.00 0.00 0.00 0.00 0.00 0.00 0.00 0.00 0.00 0.00 0.00 0.00 0.00 0.00 0.00 0.00 0.00 0.00 0.00 0.00 0.00 0.00 0.00 0.00 0.00 0.00 0.00 0.00 0.00 0.00 0.01 0.05
0.00 0.00 0.00 0.01 0.01 0.00 0.00 0.00 0.00 0.00 0.00 0.00 0.00 0.00 0.00 0.00 0.00 0.00 0.00 0.00 0.00 0.00 0.00 0.00 0.00 0.00 0.00 0.00 0.00 0.00 0.00 0.00 0.00 0.00 0.00 0.00 0.00 0.00 0.00 0.00 0.00 0.00 0.00 0.03
0.00 0.00 0.00 0.00 0.00 0.00 0.00 0.00 0.00 0.00 0.00 0.00 0.00 0.00 0.00 0.00 0.00 0.00 0.00 0.00 0.00 0.00 0.00 0.00 0.00 0.00 0.00 0.00 0.00 0.00 0.00 0.00 0.00 0.00 0.00 0.00 0.00 0.00 0.00 0.00 0.00 0.00 0.00 0.01
0.00 0.00 0.00 0.00 0.00 0.00 0.00 0.00 0.00 0.00 0.00 0.00 0.00 0.00 0.00 0.00 0.00 0.00 0.00 0.00 0.00 0.00 0.00 0.00 0.00 0.00 0.00 0.00 0.00 0.00 0.00 0.00 0.00 0.00 0.00 0.00 0.00 0.00 0.00 0.00 0.00 0.01 0.01 0.01
0.00 0.00 0.00 0.00 0.00 0.00 0.00 0.00 0.00 0.00 0.00 0.00 0.00 0.00 0.00 0.00 0.00 0.00 0.00 0.00 0.00 0.00 0.00 0.00 0.00 0.00 0.00 0.00 0.00 0.00 0.00 0.00 0.00 0.00 0.00 0.00 0.00 0.00 0.00 0.00 0.01 0.01 0.02 0.04
0.00 0.00 0.00 0.00 0.00 0.00 0.00 0.00 0.00 0.00 0.00 0.00 0.00 0.00 0.00 0.00 0.00 0.00 0.00 0.00 0.00 0.00 0.00 0.00 0.00 0.00 0.00 0.00 0.00 0.00 0.00 0.00 0.00 0.00 0.00 0.00 0.00 0.00 0.00 0.00 0.02 0.06 0.06 0.11
MSLP
1011.42 1010.76 1009.31 1009.11 1009.25 1008.71 1009.02 1008.72 1008.16 1008.11 1008.59 1008.39 1007.14 1006.19 1005.70 1005.36 1005.37 1005.45 1005.45 1005.68 1005.97 1006.06 1005.87 1006.50 1007.00 1007.19 1007.19 1007.03 1007.30 1007.70 1008.20 1008.82 1009.60 1009.88 1009.89 1010.07 1010.01 1010.47 1010.63 1010.76 1010.96 1011.56 1012.13 1012.77
1010.49 1009.88 1009.24 1009.64 1009.82 1009.38 1009.32 1008.99 1008.50 1008.61 1008.92 1009.05 1007.37 1005.61 1005.52 1005.27 1005.17 1005.37 1005.76 1006.12 1006.35 1006.31 1006.35 1007.11 1007.31 1007.30 1007.41 1007.55 1007.47 1007.25 1007.82 1008.16 1008.48 1008.78 1008.83 1009.04 1009.28 1009.20 1009.49 1009.75 1009.99 1010.30 1010.77 1011.14
1009.27 1008.99 1009.30 1010.11 1009.90 1009.65 1009.30 1009.09 1008.84 1008.84 1008.86 1008.98 1008.20 1005.22 1005.11 1004.48 1005.07 1006.07 1006.54 1006.68 1006.80 1007.34 1007.45 1007.63 1007.70 1007.76 1007.66 1007.72 1007.81 1007.49 1007.17 1007.40 1007.81 1007.97 1008.25 1008.39 1008.71 1008.72 1008.51 1008.43 1008.72 1009.11 1009.70 1009.92
1009.57 1009.24 1009.98 1009.93 1009.50 1009.82 1009.30 1009.48 1009.85 1009.55 1009.45 1008.11 1007.77 1004.33 1004.46 1004.51 1004.67 1005.78 1007.04 1007.30 1008.03 1008.33 1008.59 1008.51 1008.44 1008.43 1008.31 1008.44 1008.24 1007.92 1007.58 1007.10 1007.10 1007.39 1007.54 1007.67 1007.62 1007.35 1007.06 1007.49 1007.54 1007.94 1008.34 1008.68
1010.12 1010.40 1010.25 1009.98 1009.69 1010.23 1009.80 1010.45 1010.32 1009.74 1009.36 1008.78 1007.62 1006.45 1004.80 1004.74 1005.29 1006.70 1008.13 1008.78 1009.14 1009.55 1009.47 1009.40 1009.33 1009.09 1008.89 1008.95 1008.65 1008.42 1007.92 1007.18 1007.04 1006.95 1007.10 1007.17 1006.98 1006.79 1006.65 1006.58 1006.66 1006.75 1007.21 1007.61
1010.96 1011.33 1010.90 1010.22 1010.54 1010.44 1010.47 1010.69 1010.49 1010.16 1009.81 1008.29 1007.41 1006.27 1004.79 1004.37 1005.15 1007.16 1008.96 1009.77 1010.14 1010.29 1010.18 1009.62 1009.61 1009.38 1009.23 1009.16 1008.75 1008.59 1008.07 1007.52 1007.21 1007.06 1006.67 1006.63 1006.67 1006.18 1006.04 1005.96 1005.81 1005.76 1005.93 1006.25
1011.49 1011.32 1011.44 1011.37 1010.86 1011.08 1010.72 1010.38 1009.94 1010.05 1009.55 1007.41 1006.97 1006.19 1005.05 1005.57 1006.42 1007.49 1009.07 1009.66 1009.91 1010.12 1009.98 1009.77 1009.60 1009.46 1009.50 1009.29 1008.87 1008.46 1008.25 1007.67 1007.29 1007.08 1006.78 1006.24 1006.02 1005.92 1005.48 1005.27 1005.26 1005.13 1004.89 1004.73
1011.28 1011.66 1011.74 1011.72 1011.26 1010.72 1010.88 1010.66 1009.75 1009.39 1008.54 1007.55 1007.91 1006.16 1005.44 1006.84 1007.87 1008.78 1009.24 1009.59 1009.82 1009.91 1009.88 1009.78 1009.66 1009.57 1009.51 1009.36 1009.18 1008.57 1008.04 1007.73 1007.32 1006.89 1006.51 1006.26 1005.83 1005.15 1004.59 1004.43 1004.24 1004.08 1003.95 1003.71
1012.24 1012.35 1012.59 1012.34 1011.84 1011.57 1011.30 1011.33 1010.95 1010.78 1010.67 1009.92 1008.03 1006.44 1006.59 1006.92 1007.59 1008.95 1009.36 1009.72 1010.09 1009.95 1010.03 1009.84 1009.60 1009.37 1009.29 1009.16 1008.95 1008.85 1008.43 1007.64 1007.30 1006.79 1006.17 1005.64 1005.39 1004.88 1004.24 1003.67 1003.39 1003.09 1003.14 1003.03
1014.06 1013.28 1013.30 1012.84 1012.46 1012.24 1011.57 1011.72 1011.82 1011.75 1011.21 1009.77 1007.79 1006.78 1006.46 1007.43 1008.30 1009.45 1009.84 1009.98 1010.14 1010.11 1009.87 1009.52 1009.37 1009.19 1009.07 1008.93 1008.70 1008.66 1008.30 1007.81 1007.35 1006.76 1006.09 1005.41 1004.75 1003.95 1003.46 1003.31 1002.74 1002.35 1002.11 1002.21
1014.86 1014.00 1013.91 1013.57 1012.82 1012.50 1012.82 1012.43 1012.48 1012.29 1012.16 1011.07 1009.25 1007.14 1007.32 1008.24 1009.05 1009.82 1010.16 1010.18 1010.17 1010.05 1009.77 1009.50 1009.22 1009.04 1008.89 1008.71 1008.48 1008.33 1008.15 1007.83 1007.21 1006.74 1006.09 1005.35 1004.59 1003.73 1002.66 1001.93 1001.84 1001.45 1001.31 1001.21
1016.55 1015.57 1014.37 1014.03 1014.48 1014.66 1014.20 1013.68 1013.70 1013.10 1012.78 1012.57 1011.44 1007.57 1007.74 1008.73 1009.57 1009.89 1010.10 1010.10 1010.07 1010.00 1009.94 1009.67 1009.38 1009.04 1008.60 1008.28 1008.12 1008.00 1007.92 1007.59 1007.27 1006.67 1006.04 1005.31 1004.39 1003.40 1002.35 1001.52 1000.88 1000.70 1000.38 1000.30
1017.58 1016.80 1015.50 1014.72 1015.15 1015.08 1014.59 1014.54 1014.45 1014.49 1014.51 1013.10 1012.14 1008.31 1008.61 1009.03 1008.65 1009.53 1009.72 1009.84 1009.92 1009.70 1009.63 1009.44 1009.03 1008.76 1008.40 1007.99 1007.83 1007.84 1007.61 1007.31 1006.91 1006.40 1005.81 1005.08 1004.11 1003.32 1002.28 1001.30 1000.57 1000.16 999.90 999.51
1018.92 1017.59 1016.55 1015.70 1015.33 1015.79 1015.33 1015.15 1015.00 1014.65 1014.17 1013.23 1011.27 1008.99 1009.49 1009.35 1009.34 1009.40 1009.48 1009.68 1009.61 1009.45 1009.35 1009.15 1008.70 1008.34 1007.91 1007.48 1007.29 1007.16 1006.96 1006.82 1006.50 1005.98 1005.40 1004.76 1003.98 1003.16 1002.26 1001.35 1000.49 1000.16 999.57 999.69
1018.86 1017.96 1017.62 1017.21 1017.01 1016.70 1016.09 1015.60 1015.32 1014.76 1014.14 1013.27 1011.95 1010.12 1009.91 1010.17 1009.71 1009.41 1009.47 1009.34 1009.23 1009.11 1009.01 1008.64 1008.22 1007.74 1007.33 1006.95 1006.76 1006.59 1006.33 1006.08 1005.89 1005.50 1005.04 1004.40 1003.78 1002.98 1002.08 1001.32 1000.61 1000.24 1000.13 999.43
1019.67 1018.94 1018.68 1018.04 1017.61 1017.03 1016.14 1015.62 1014.88 1014.26 1013.85 1013.07 1012.30 1010.12 1010.31 1010.11 1009.60 1009.26 1009.14 1009.01 1008.92 1008.85 1008.58 1008.27 1007.76 1007.29 1006.89 1006.62 1006.62 1006.23 1005.85 1005.36 1005.27 1005.07 1004.49 1003.96 1003.33 1002.72 1001.81 1001.10 1000.63 1000.40 1000.18 999.95
1020.10 1019.68 1019.45 1018.37 1017.71 1017.09 1015.66 1014.06 1013.68 1013.62 1013.39 1012.85 1011.87 1010.42 1009.96 1009.46 1009.58 1009.14 1008.93 1008.99 1008.77 1008.59 1008.29 1008.01 1007.65 1007.14 1006.66 1006.52 1006.23 1005.71 1005.27 1004.78 1004.42 1004.22 1003.78 1003.36 1002.86 1002.22 1001.57 1000.87 1000.38 1000.16 1000.07 1000.25
1020.06 1020.09 1020.19 1019.17 1018.36 1016.50 1014.09 1013.82 1013.20 1012.73 1012.76 1012.53 1011.71 1011.02 1010.52 1009.63 1009.19 1009.04 1009.08 1008.84 1008.52 1008.22 1008.19 1008.03 1007.68 1007.12 1006.42 1006.08 1005.78 1005.20 1004.72 1004.27 1003.84 1003.39 1003.01 1002.60 1002.14 1001.61 1001.16 1000.62 1000.09 1000.05 999.96 1000.07
1020.13 1020.26 1020.26 1019.52 1017.68 1015.52 1013.96 1013.06 1013.09 1013.11 1012.72 1012.08 1011.33 1010.73 1010.06 1009.60 1008.98 1008.46 1008.84 1008.92 1008.69 1008.20 1007.75 1007.54 1007.17 1006.64 1005.95 1005.39 1005.02 1004.55 1004.01 1003.60 1003.19 1002.69 1002.24 1001.91 1001.66 1001.17 1000.63 1000.02 999.49 999.57 999.71 999.58
1019.62 1020.44 1020.60 1019.55 1018.02 1015.38 1013.75 1013.39 1013.33 1013.10 1011.84 1011.17 1011.19 1010.84 1010.52 1010.58 1009.86 1007.48 1007.99 1008.96 1008.55 1008.22 1007.62 1007.02 1006.43 1005.98 1005.34 1004.74 1004.39 1003.84 1003.32 1002.99 1002.51 1002.05 1001.62 1001.39 1001.22 1000.76 1000.08 999.50 998.95 998.61 998.98 999.18
1019.76 1020.27 1019.96 1019.11 1017.71 1014.92 1013.54 1013.35 1013.61 1013.24 1011.80 1011.52 1011.74 1011.76 1011.67 1011.23 1010.85 1009.63 1008.34 1008.01 1007.91 1007.38 1006.85 1006.38 1005.83 1005.08 1004.41 1004.01 1003.58 1003.06 1002.69 1002.15 1001.77 1001.44 1001.01 1000.76 1000.60 1000.11 999.50 998.86 998.38 997.92 998.25 998.51
1018.44 1018.56 1018.39 1018.02 1016.71 1014.75 1013.19 1013.24 1013.39 1012.49 1012.11 1012.27 1012.13 1011.81 1011.47 1011.12 1010.27 1009.66 1008.56 1007.74 1007.12 1006.37 1005.92 1005.59 1005.01 1004.04 1003.54 1003.29 1002.90 1002.22 1001.78 1001.49 1001.16 1000.74 1000.49 1000.24 999.88 999.41 998.80 998.24 997.63 997.24 997.58 997.96
1017.50 1016.71 1016.36 1016.07 1014.20 1013.18 1012.99 1012.77 1012.91 1012.93 1012.43 1012.16 1011.95 1011.45 1011.33 1010.73 1009.82 1009.08 1008.23 1007.46 1006.78 1005.86 1005.21 1004.77 1004.19 1003.49 1002.78 1002.60 1002.38 1001.71 1001.08 1001.08 1000.82 1000.44 1000.10 999.86 999.33 998.80 998.27 997.74 997.12 996.95 997.06 997.41
1016.37 1016.41 1016.02 1015.56 1013.74 1013.57 1013.28 1012.93 1012.66 1012.73 1012.39 1012.09 1011.93 1011.46 1010.89 1010.33 1009.50 1008.61 1007.78 1006.84 1006.19 1005.34 1004.62 1004.23 1003.69 1003.00 1002.12 1001.92 1001.69 1001.52 1000.92 1000.90 1000.47 1000.24 1000.01 999.55 999.02 998.43 998.20 997.65 997.40 997.08 997.05 997.38
1016.16 1015.88 1015.11 1014.33 1013.94 1013.69 1013.24 1012.90 1012.61 1012.47 1012.41 1011.93 1011.43 1011.28 1010.74 1010.28 1009.37 1008.51 1007.36 1006.29 1005.60 1005.03 1004.23 1003.75 1003.16 1002.56 1001.79 1001.57 1001.29 1001.26 1001.04 1000.94 1000.70 1000.33 999.82 999.27 998.95 998.79 998.53 998.02 997.85 997.28 996.81 996.76
1015.59 1014.83 1014.58 1013.77 1013.72 1013.63 1013.36 1013.12 1013.05 1012.67 1012.42 1012.48 1012.09 1011.08 1010.85 1010.88 1009.79 1008.76 1007.46 1006.60 1005.77 1004.93 1004.33 1003.75 1003.27 1002.63 1001.80 1001.41 1001.26 1001.45 1001.73 1002.02 1001.73 1000.86 1000.19 999.77 999.36 998.91 998.46 998.12 998.03 997.81 997.19 997.15
Thickness
5670 5670 5679 5691 5693 5700 5693 5692 5694 5703 5707 5701 5714 5725 5732 5748 5747 5748 5752 5749 5749 5750 5764 5760 5760 5764 5767 5771 5769 5767 5764 5761 5754 5750 5748 5746 5745 5741 5742 5741 5738 5731 5725 5719
5661 5661 5686 5682 5682 5682 5681 5681 5687 5694 5695 5687 5705 5720 5729 5733 5742 5742 5737 5736 5737 5741 5745 5743 5746 5750 5752 5755 5759 5763 5758 5758 5756 5753 5753 5750 5746 5748 5747 5745 5741 5737 5732 5728
5659 5671 5675 5664 5666 5666 5673 5672 5678 5676 5683 5683 5681 5704 5719 5739 5730 5727 5723 5725 5725 5721 5722 5725 5729 5733 5738 5740 5743 5749 5755 5754 5753 5752 5749 5748 5745 5745 5745 5749 5744 5740 5734 5731
5650 5665 5653 5653 5657 5660 5656 5670 5660 5658 5654 5658 5681 5680 5710 5721 5720 5713 5706 5705 5703 5703 5705 5709 5711 5714 5719 5722 5728 5733 5739 5745 5747 5747 5744 5741 5740 5740 5751 5745 5745 5741 5738 5734
5634 5632 5634 5637 5647 5647 5647 5649 5648 5651 5649 5653 5665 5658 5691 5708 5698 5688 5678 5682 5684 5684 5686 5689 5692 5698 5703 5705 5708 5712 5720 5729 5734 5737 5737 5735 5736 5740 5743 5744 5743 5742 5739 5736
5619 5625 5628 5634 5634 5638 5642 5636 5637 5640 5639 5632 5657 5666 5680 5698 5690 5676 5667 5662 5663 5665 5669 5676 5679 5683 5686 5690 5695 5697 5703 5710 5717 5721 5726 5727 5726 5732 5733 5735 5738 5741 5740 5738
5605 5610 5616 5620 5618 5622 5627 5627 5619 5610 5609 5632 5661 5656 5678 5682 5676 5671 5655 5655 5655 5656 5657 5660 5663 5665 5667 5671 5679 5685 5687 5692 5698 5704 5709 5717 5720 5721 5725 5729 5730 5733 5737 5740
5597 5589 5600 5606 5609 5613 5613 5616 5615 5599 5622 5638 5633 5639 5662 5663 5656 5649 5646 5647 5644 5645 5645 5647 5650 5653 5654 5656 5659 5666 5673 5677 5683 5688 5695 5701 5707 5714 5720 5723 5726 5730 5732 5737
5587 5582 5591 5594 5602 5607 5600 5594 5616 5601 5603 5595 5628 5652 5658 5658 5648 5636 5632 5629 5623 5625 5628 5632 5636 5640 5640 5642 5645 5647 5653 5662 5666 5673 5681 5688 5693 5700 5707 5715 5720 5724 5728 5731
5570 5570 5577 5584 5594 5596 5600 5604 5585 5590 5574 5584 5623 5634 5635 5632 5624 5617 5611 5609 5608 5609 5614 5620 5623 5626 5629 5631 5634 5636 5640 5645 5650 5658 5665 5672 5679 5690 5697 5701 5708 5714 5720 5722
5563 5570 5567 5575 5579 5582 5581 5582 5585 5587 5584 5576 5592 5626 5632 5619 5613 5601 5600 5596 5596 5599 5604 5609 5613 5616 5617 5620 5621 5623 5627 5629 5635 5640 5647 5655 5663 5673 5685 5694 5698 5705 5710 5714
5544 5552 5559 5565 5564 5562 5565 5568 5569 5566 5569 5571 5572 5611 5629 5613 5599 5596 5592 5590 5590 5589 5592 5596 5599 5602 5605 5607 5610 5612 5614 5616 5619 5625 5631 5636 5645 5656 5668 5677 5687 5692 5699 5704
5535 5538 5545 5555 5554 5555 5556 5559 5560 5556 5549 5556 5554 5598 5610 5602 5601 5592 5586 5583 5579 5580 5581 5583 5586 5587 5589 5593 5597 5598 5600 5603 5607 5611 5615 5622 5630 5638 5647 5658 5669 5676 5684 5693
5516 5531 5539 5546 5548 5543 5543 5546 5548 5548 5542 5551 5567 5588 5591 5582 5579 5579 5578 5574 5572 5571 5570 5570 5571 5574 5578 5582 5583 5585 5588 5590 5593 5598 5603 5607 5613 5621 5630 5639 5648 5657 5667 5672
5517 5524 5527 5529 5529 5528 5530 5533 5535 5538 5544 5539 5553 5567 5572 5562 5564 5569 5567 5566 5563 5561 5559 5560 5561 5564 5567 5570 5572 5572 5574 5576 5579 5583 5587 5593 5600 5607 5615 5623 5630 5636 5642 5656
5501 5505 5507 5510 5515 5518 5518 5523 5529 5532 5532 5533 5536 5554 5557 5553 5556 5560 5558 5552 5549 5547 5548 5548 5549 5551 5553 5553 5552 5555 5557 5561 5563 5564 5571 5578 5585 5591 5600 5607 5614 5616 5622 5629
5486 5493 5489 5494 5509 5506 5506 5526 5528 5526 5525 5522 5521 5541 5547 5548 5541 5548 5545 5535 5534 5533 5532 5531 5531 5533 5535 5536 5537 5538 5542 5545 5548 5550 5556 5561 5568 5576 5584 5593 5601 5603 5606 5609
5480 5480 5474 5478 5490 5484 5523 5523 5525 5523 5516 5514 5520 5525 5528 5534 5538 5540 5531 5521 5520 5519 5515 5513 5513 5516 5521 5522 5523 5525 5528 5530 5533 5537 5541 5547 5553 5561 5568 5576 5585 5590 5591 5595
5476 5473 5460 5466 5490 5508 5514 5517 5509 5498 5496 5509 5510 5512 5518 5518 5527 5536 5518 5506 5503 5504 5506 5504 5502 5502 5507 5511 5512 5512 5517 5520 5521 5523 5528 5534 5538 5544 5553 5564 5573 5577 5580 5585
5472 5459 5449 5459 5457 5481 5503 5501 5496 5495 5495 5505 5502 5500 5499 5493 5489 5529 5517 5493 5491 5489 5491 5491 5494 5494 5496 5502 5502 5503 5507 5508 5511 5514 5518 5520 5523 5528 5539 5550 5561 5569 5570 5572
5443 5433 5437 5444 5448 5491 5504 5486 5483 5469 5490 5491 5484 5477 5472 5471 5472 5480 5494 5487 5483 5484 5484 5483 5482 5486 5491 5493 5492 5493 5497 5502 5505 5507 5510 5511 5511 5516 5525 5537 5547 5557 5558 5560
5452 5448 5445 5439 5441 5460 5496 5480 5465 5477 5482 5472 5467 5465 5461 5461 5466 5467 5475 5474 5475 5479 5478 5474 5470 5482 5485 5484 5482 5485 5490 5495 5497 5502 5503 5503 5506 5509 5515 5523 5536 5545 5546 5549
5450 5467 5467 5467 5480 5491 5484 5479 5472 5463 5462 5462 5459 5462 5454 5453 5459 5461 5463 5464 5464 5470 5471 5470 5467 5470 5479 5477 5473 5475 5485 5484 5486 5490 5493 5494 5498 5502 5505 5511 5521 5528 5532 5536
5463 5460 5455 5455 5480 5473 5469 5470 5466 5458 5455 5455 5451 5450 5452 5446 5452 5454 5455 5458 5456 5461 5462 5460 5459 5461 5469 5468 5466 5464 5474 5472 5476 5478 5481 5484 5486 5490 5491 5497 5502 5508 5514 5516
5453 5451 5454 5462 5463 5460 5461 5460 5459 5456 5451 5451 5452 5445 5444 5438 5442 5443 5446 5451 5449 5448 5452 5451 5451 5452 5457 5455 5457 5455 5458 5458 5461 5464 5468 5472 5472 5470 5471 5478 5481 5490 5502 5508
5447 5449 5449 5453 5456 5453 5453 5452 5449 5447 5445 5437 5434 5440 5434 5418 5421 5424 5428 5427 5427 5431 5433 5434 5435 5437 5444 5444 5444 5441 5438 5433 5435 5443 5448 5451 5453 5455 5457 5463 5466 5469 5481 5488